Wasilla, AK

5:47 AM AKDT on September 22, 2017 (GMT -0800)
Wasilla

Weather History for PAWS - August, 2013

Change the Weather History Date:

Sunday, August 25, 2013

  Actual Average Record
Temperature  
Mean Temperature 52 °F -  
Max Temperature 66 °F 65 °F 78 °F (1987)
Min Temperature 39 °F 44 °F 31 °F (1965)
Degree Days  
Heating Degree Days 12    
Growing Degree Days 2 (Base 50)    
Moisture  
Dew Point 39 °F    
Average Humidity 60    
Maximum Humidity 87    
Minimum Humidity 37    
Precipitation  
Precipitation 0.00 in - - ()
Sea Level Pressure  
Sea Level Pressure 29.70 in    
Wind  
Wind Speed 4 mph (North)    
Max Wind Speed 13 mph    
Max Gust Speed 20 mph    
Visibility 10 miles    
Events      
Averages and records for this station are not official NWS values.
T = Trace of Precipitation, MM = Missing Value Source: NWS Daily Summary

Daily Weather History Graph

Daily Weather History Graph

Search for Another Location

Airport or City:

Trip Planner

Search our weather history database for the weather conditions in past years. The results will help you decide how hot, cold, wet, or windy it might be!

Date:

Astronomy

Aug. 25, 2013 Rise Set
Actual Time 6:31 AM AKDT 9:26 PM AKDT
Civil Twilight 5:41 AM AKDT 10:16 PM AKDT
Nautical Twilight 4:31 AM AKDT 11:25 PM AKDT
Astronomical Twilight 2:32 AM AKDT 1:36 AM AKDT
Moon 10:11 PM AKDT (8/25) 1:32 PM AKDT (8/25)
Length of Visible Light 16h 34m
Length of Day
14h 54m
Waning Gibbous, 74% of the Moon is Illuminated
Aug 25
Waning Gibbous
Aug 28
Last Quarter
Sep 5
New
Sep 12
First Quarter
Sep 19
Full

Hourly Weather History & Observations

Time (AKDT) Temp. Windchill Dew Point Humidity Pressure Visibility Wind Dir Wind Speed Gust Speed Precip Events Conditions
12:16 AM 48.2 °F - 42.8 °F 82% 29.69 in 10.0 mi Calm Calm - N/A   Clear
12:36 AM 48.2 °F - 42.8 °F 82% 29.69 in 10.0 mi Calm Calm - N/A   Clear
12:56 AM 48.2 °F - 41.0 °F 76% 29.69 in 10.0 mi ENE 3.5 mph - N/A   Clear
1:16 AM 53.6 °F - 37.4 °F 54% 29.70 in 10.0 mi ENE 8.1 mph - N/A   Clear
1:36 AM 53.6 °F - 37.4 °F 54% 29.70 in 10.0 mi ENE 9.2 mph - N/A   Clear
1:56 AM 55.4 °F - 35.6 °F 47% 29.70 in 10.0 mi East 10.4 mph 18.4 mph N/A   Clear
2:16 AM 55.4 °F - 35.6 °F 47% 29.70 in 10.0 mi ENE 12.7 mph 19.6 mph N/A   Clear
2:36 AM 55.4 °F - 33.8 °F 44% 29.70 in 10.0 mi ENE 11.5 mph - N/A   Clear
2:56 AM 55.4 °F - 33.8 °F 44% 29.71 in 10.0 mi ENE 12.7 mph 17.3 mph N/A   Clear
3:16 AM 53.6 °F - 33.8 °F 47% 29.71 in 10.0 mi ENE 9.2 mph 16.1 mph N/A   Clear
3:36 AM 53.6 °F - 33.8 °F 47% 29.71 in 10.0 mi ENE 8.1 mph - N/A   Clear
3:56 AM 50.0 °F - 35.6 °F 58% 29.72 in 10.0 mi West 6.9 mph - N/A   Clear
4:16 AM 44.6 °F 41.4 °F 37.4 °F 76% 29.72 in 10.0 mi WSW 5.8 mph - N/A   Clear
4:36 AM 42.8 °F 41.1 °F 35.6 °F 76% 29.72 in 10.0 mi West 3.5 mph - N/A   Clear
4:56 AM 42.8 °F 41.1 °F 35.6 °F 76% 29.72 in 10.0 mi West 3.5 mph - N/A   Clear
5:16 AM 42.8 °F 40.1 °F 35.6 °F 76% 29.73 in 10.0 mi NW 4.6 mph - N/A   Clear
5:36 AM 42.8 °F 39.3 °F 35.6 °F 76% 29.73 in 10.0 mi West 5.8 mph - N/A   Clear
5:56 AM 42.8 °F 40.1 °F 35.6 °F 76% 29.73 in 10.0 mi WNW 4.6 mph - N/A   Clear
6:16 AM 42.8 °F - 35.6 °F 76% 29.72 in 10.0 mi Calm Calm - N/A   Clear
6:36 AM 39.2 °F 37.0 °F 33.8 °F 81% 29.73 in 10.0 mi WSW 3.5 mph - N/A   Clear
6:56 AM 39.2 °F 35.9 °F 33.8 °F 81% 29.73 in 10.0 mi West 4.6 mph - N/A   Clear
7:16 AM 39.2 °F 35.9 °F 33.8 °F 81% 29.73 in 10.0 mi WSW 4.6 mph - N/A   Clear
7:36 AM 39.2 °F - 33.8 °F 81% 29.73 in 10.0 mi Calm Calm - N/A   Clear
7:56 AM 41.0 °F 39.0 °F 35.6 °F 81% 29.73 in 10.0 mi West 3.5 mph - N/A   Clear
8:16 AM 42.8 °F 40.1 °F 35.6 °F 76% 29.74 in 10.0 mi WNW 4.6 mph - N/A   Clear
8:36 AM 46.4 °F 45.2 °F 37.4 °F 71% 29.73 in 10.0 mi NW 3.5 mph - N/A   Clear
8:56 AM 48.2 °F - 37.4 °F 66% 29.73 in 10.0 mi West 4.6 mph - N/A   Clear
9:16 AM 51.8 °F - 37.4 °F 58% 29.73 in 10.0 mi NW 3.5 mph - N/A   Clear
9:36 AM 53.6 °F - 39.2 °F 58% 29.72 in 10.0 mi Calm Calm - N/A   Clear
9:56 AM 53.6 °F - 39.2 °F 58% 29.72 in 10.0 mi Calm Calm - N/A   Clear
10:16 AM 53.6 °F - 37.4 °F 54% 29.72 in 10.0 mi NE 4.6 mph - N/A   Clear
10:36 AM 53.6 °F - 37.4 °F 54% 29.72 in 10.0 mi ENE 4.6 mph - N/A   Clear
10:56 AM 53.6 °F - 37.4 °F 54% 29.72 in 10.0 mi East 4.6 mph - N/A   Clear
11:16 AM 55.4 °F - 37.4 °F 51% 29.71 in 10.0 mi ENE 5.8 mph - N/A   Clear
11:36 AM 55.4 °F - 37.4 °F 51% 29.71 in 10.0 mi ENE 4.6 mph - N/A   Clear
11:56 AM 57.2 °F - 39.2 °F 51% 29.71 in 10.0 mi East 3.5 mph - N/A   Clear
12:16 PM 57.2 °F - 37.4 °F 48% 29.71 in 10.0 mi ENE 5.8 mph - N/A   Clear
12:36 PM 57.2 °F - 39.2 °F 51% 29.71 in 10.0 mi ENE 5.8 mph - N/A   Clear
12:56 PM 59.0 °F - 39.2 °F 48% 29.70 in 10.0 mi East 5.8 mph - N/A   Clear
1:16 PM 59.0 °F - 37.4 °F 45% 29.70 in 10.0 mi ENE 4.6 mph - N/A   Clear
1:36 PM 60.8 °F - 37.4 °F 42% 29.70 in 10.0 mi NE 4.6 mph - N/A   Clear
1:56 PM 60.8 °F - 37.4 °F 42% 29.70 in 10.0 mi NNE 4.6 mph - N/A   Clear
2:16 PM 62.6 °F - 41.0 °F 45% 29.70 in 10.0 mi North 3.5 mph - N/A   Clear
2:36 PM 62.6 °F - 41.0 °F 45% 29.70 in 10.0 mi NNW 3.5 mph - N/A   Clear
2:56 PM 64.4 °F - 39.2 °F 40% 29.70 in 10.0 mi Calm Calm - N/A   Clear
3:16 PM 62.6 °F - 37.4 °F 39% 29.69 in 10.0 mi Calm Calm - N/A   Clear
3:36 PM 64.4 °F - 41.0 °F 42% 29.69 in 10.0 mi WNW 3.5 mph - N/A   Clear
3:56 PM 64.4 °F - 39.2 °F 40% 29.69 in 10.0 mi West 3.5 mph - N/A   Clear
4:16 PM 66.2 °F - 39.2 °F 37% 29.69 in 10.0 mi NNW 4.6 mph - N/A   Clear
4:36 PM 64.4 °F - 39.2 °F 40% 29.68 in 10.0 mi West 4.6 mph - N/A   Clear
4:56 PM 66.2 °F - 39.2 °F 37% 29.68 in 10.0 mi Calm Calm - N/A   Clear
5:16 PM 66.2 °F - 39.2 °F 37% 29.68 in 10.0 mi NNW 3.5 mph - N/A   Clear
5:36 PM 66.2 °F - 39.2 °F 37% 29.68 in 10.0 mi SSW 3.5 mph - N/A   Clear
5:56 PM 66.2 °F - 39.2 °F 37% 29.68 in 10.0 mi NW 3.5 mph - N/A   Clear
6:16 PM 66.2 °F - 39.2 °F 37% 29.68 in 10.0 mi WSW 3.5 mph - N/A   Clear
6:36 PM 64.4 °F - 41.0 °F 42% 29.68 in 10.0 mi South 4.6 mph - N/A   Clear
6:56 PM 62.6 °F - 46.4 °F 55% 29.68 in 10.0 mi South 5.8 mph - N/A   Clear
7:16 PM 62.6 °F - 46.4 °F 55% 29.68 in 10.0 mi SSE 3.5 mph - N/A   Clear
7:36 PM 62.6 °F - 46.4 °F 55% 29.68 in 10.0 mi South 4.6 mph - N/A   Clear
7:56 PM 62.6 °F - 46.4 °F 55% 29.68 in 10.0 mi South 3.5 mph - N/A   Clear
8:16 PM 60.8 °F - 46.4 °F 59% 29.68 in 10.0 mi Calm Calm - N/A   Clear
8:36 PM 59.0 °F - 48.2 °F 67% 29.68 in 10.0 mi Calm Calm - N/A   Clear
8:56 PM 57.2 °F - 48.2 °F 72% 29.69 in 10.0 mi Calm Calm - N/A   Clear
9:16 PM 53.6 °F - 46.4 °F 77% 29.69 in 10.0 mi Calm Calm - N/A   Clear
9:36 PM 51.8 °F - 46.4 °F 82% 29.69 in 10.0 mi Calm Calm - N/A   Clear
9:56 PM 51.8 °F - 46.4 °F 82% 29.70 in 10.0 mi Calm Calm - N/A   Clear
10:16 PM 50.0 °F - 46.4 °F 87% 29.70 in 10.0 mi Calm Calm - N/A   Clear
10:36 PM 48.2 °F - 44.6 °F 87% 29.71 in 10.0 mi Calm Calm - N/A   Clear
10:56 PM 48.2 °F - 44.6 °F 87% 29.71 in 10.0 mi Calm Calm - N/A   Clear
11:16 PM 46.4 °F - 42.8 °F 87% 29.71 in 10.0 mi Calm Calm - N/A   Clear
11:36 PM 46.4 °F - 41.0 °F 81% 29.72 in 10.0 mi Calm Calm - N/A   Clear
11:56 PM 46.4 °F - 42.8 °F 87% 29.72 in 10.0 mi Calm Calm - N/A   Partly Cloudy